Weather History for Melbourne, FL

Change the Weather History Date:

Sunday, July 14, 2013

  Actual Average Record
Temperature  
Mean Temperature 79 °F 82 °F  
Max Temperature 85 °F 91 °F 102 °F (1980)
Min Temperature 73 °F 73 °F 67 °F (1938)
Degree Days  
Heating Degree Days 0 0  
Month to date heating degree days 0 0  
Since 1 June heating degree days 0 0  
Since 1 July heating degree days 0 0  
Cooling Degree Days 14 17  
Month to date cooling degree days 242 227  
Year to date cooling degree days 1601 1415  
Since 1 June cooling degree days 740 689  
Growing Degree Days 28 (Base 50)    
Moisture  
Dew Point 72 °F    
Average Humidity 82    
Maximum Humidity 93    
Minimum Humidity 70    
Precipitation  
Precipitation 1.40 in 0.17 in 1.65 in (1943)
Month to date precipitation 2.43 2.65  
Year to date precipitation 24.50 22.86  
Sea Level Pressure  
Sea Level Pressure 30.07 in    
Wind  
Wind Speed 6 mph (SE)    
Max Wind Speed 22 mph    
Max Gust Speed 28 mph    
Visibility 9 miles    
Events Rain    
T = Trace of Precipitation, MM = Missing Value Source: NWS Daily Summary

Daily Weather History Graph

Daily Weather History Graph

Search for Another Location

Airport:

Trip Planner

Search our weather history database for the weather conditions in past years. The results will help you decide how hot, cold, wet, or windy it might be!

Date:

Astronomy

Jul. 14, 2013 Rise Set
Actual Time 6:35 AM EDT 8:21 PM EDT
Civil Twilight 6:09 AM EDT 8:47 PM EDT
Nautical Twilight 5:37 AM EDT 9:19 PM EDT
Astronomical Twilight 5:04 AM EDT 9:52 PM EDT
Moon 12:14 PM EDT (7/14) No Moon Set
Length of Visible Light 14h 38m
Length of Day
13h 45m
Waxing Crescent, 35% of the Moon is Illuminated
Jul 14
Waxing Crescent
Jul 15
First Quarter
Jul 22
Full
Jul 29
Last Quarter
Aug 6
New

Hourly Weather History & Observations

Time (EDT) Temp. Heat Index Dew Point Humidity Pressure Visibility Wind Dir Wind Speed Gust Speed Precip Events Conditions
12:53 AM 75.0 °F - 71.1 °F 87% 30.03 in 10.0 mi South 4.6 mph - N/A   Clear
1:53 AM 73.9 °F - 71.1 °F 91% 30.02 in 10.0 mi South 5.8 mph - N/A   Clear
2:53 AM 73.9 °F - 70.0 °F 87% 30.01 in 10.0 mi Calm Calm - N/A   Clear
3:53 AM 73.9 °F - 70.0 °F 87% 30.01 in 10.0 mi South 4.6 mph - N/A   Clear
4:53 AM 73.9 °F - 70.0 °F 87% 30.01 in 10.0 mi SE 8.1 mph - N/A   Clear
5:53 AM 73.0 °F - 69.1 °F 87% 30.01 in 10.0 mi SSE 4.6 mph - N/A   Partly Cloudy
6:53 AM 73.0 °F - 69.1 °F 87% 30.01 in 10.0 mi SSE 3.5 mph - N/A   Clear
7:53 AM 77.0 °F - 70.0 °F 79% 30.03 in 10.0 mi South 6.9 mph - N/A   Clear
8:53 AM 81.0 °F 85.8 °F 73.0 °F 77% 30.06 in 10.0 mi SSE 8.1 mph - N/A   Clear
9:53 AM 84.0 °F 90.2 °F 73.0 °F 69% 30.06 in 10.0 mi South 6.9 mph - N/A   Scattered Clouds
10:53 AM 84.0 °F 90.2 °F 73.0 °F 69% 30.07 in 10.0 mi SSE 3.5 mph - N/A   Mostly Cloudy
11:43 AM 80.6 °F 85.4 °F 73.4 °F 79% 30.08 in 2.0 mi SSE 8.1 mph 24.2 mph 0.15 in Rain Rain
11:53 AM 78.1 °F - 72.0 °F 81% 30.09 in 2.0 mi ESE 4.6 mph - 0.35 in Rain Rain
12:45 PM 78.8 °F - 75.2 °F 89% 30.08 in 3.0 mi East 9.2 mph - 1.01 in Rain Light Rain
12:53 PM 80.1 °F 85.1 °F 75.0 °F 85% 30.09 in 5.0 mi East 9.2 mph - 1.02 in Rain Rain
1:53 PM 80.1 °F 84.2 °F 73.0 °F 79% 30.08 in 10.0 mi ESE 16.1 mph 23.0 mph 0.03 in   Partly Cloudy
2:28 PM 78.8 °F - 73.4 °F 83% 30.09 in 10.0 mi ESE 15.0 mph 25.3 mph N/A   Mostly Cloudy
2:35 PM 80.6 °F 85.4 °F 73.4 °F 79% 30.09 in 10.0 mi ESE 13.8 mph 24.2 mph N/A   Mostly Cloudy
2:53 PM 80.1 °F 84.5 °F 73.9 °F 81% 30.09 in 10.0 mi ESE 15.0 mph - 0.00 in Rain Light Rain
3:26 PM 80.6 °F 85.4 °F 73.4 °F 79% 30.09 in 10.0 mi SE 12.7 mph 23.0 mph 0.00 in Rain Light Rain
3:53 PM 80.1 °F 83.8 °F 72.0 °F 76% 30.07 in 10.0 mi SSE 12.7 mph - 0.00 in   Mostly Cloudy
4:53 PM 79.0 °F - 71.1 °F 77% 30.07 in 10.0 mi SSE 5.8 mph - 0.00 in Rain Light Rain
5:53 PM 78.1 °F - 71.1 °F 79% 30.09 in 10.0 mi SSE 8.1 mph - 0.00 in Rain Light Rain
6:53 PM 78.1 °F - 71.1 °F 79% 30.07 in 10.0 mi SE 6.9 mph - 0.00 in   Mostly Cloudy
7:00 PM 78.8 °F - 71.6 °F 78% 30.08 in 10.0 mi ESE 5.8 mph - N/A   Mostly Cloudy
7:53 PM 75.9 °F - 70.0 °F 82% 30.08 in 10.0 mi SSE 10.4 mph - N/A   Scattered Clouds
8:53 PM 75.0 °F - 71.1 °F 87% 30.08 in 10.0 mi South 5.8 mph - N/A   Partly Cloudy
9:53 PM 75.0 °F - 71.1 °F 87% 30.11 in 10.0 mi Calm Calm - N/A   Clear
10:53 PM 75.0 °F - 71.1 °F 87% 30.11 in 10.0 mi Calm Calm - N/A   Clear
11:53 PM 73.9 °F - 70.0 °F 87% 30.11 in 10.0 mi NE 3.5 mph - N/A   Clear